This is the latest recevied weather packets stored in our database for station/object DM4XI-13. If no packets are shown the sender has not sent any weather packets the latest 10 day(s).
| Time | Temp. | Humidity | Pressure | Rain* | Wind** | Luminosity | Snow |
|---|---|---|---|---|---|---|---|
| 1778109529 | 10.56° C | 95% | 1007.1 hPa | 0 mm | 0 m/s | 0 W/m² | - |
| 1778109468 | 10.56° C | 95% | 1007 hPa | 0 mm | 0.45 m/s, 194° | 0 W/m² | - |
| 1778109407 | 10.56° C | 95% | 1006.9 hPa | 0 mm | 0 m/s | 0 W/m² | - |
| 1778109346 | 10.56° C | 95% | 1007 hPa | 0 mm | 0.45 m/s, 187° | 0 W/m² | - |
| 1778109285 | 10.56° C | 95% | 1006.9 hPa | 0 mm | 0 m/s | 0 W/m² | - |
| 1778109224 | 10.56° C | 95% | 1007 hPa | 0 mm | 0.45 m/s, 191° | 0 W/m² | - |
| 1778109163 | 10.56° C | 95% | 1007 hPa | 0 mm | 0 m/s | 0 W/m² | - |
| 1778109102 | 10.56° C | 95% | 1006.9 hPa | 0 mm | 0.45 m/s, 189° | 0 W/m² | - |
| 1778109041 | 10.56° C | 95% | 1007 hPa | 0 mm | 0.45 m/s, 173° | 0 W/m² | - |
| 1778108980 | 10.56° C | 95% | 1006.9 hPa | 0 mm | 0.45 m/s, 183° | 0 W/m² | - |
| 1778108797 | 10.56° C | 95% | 1007 hPa | 0 mm | 0.45 m/s, 209° | 0 W/m² | - |
| 1778108736 | 10.56° C | 95% | 1007 hPa | 0 mm | 0.89 m/s, 184° | 0 W/m² | - |
| 1778108675 | 10.56° C | 95% | 1007 hPa | 0 mm | 0.89 m/s, 183° | 0 W/m² | - |
| 1778108614 | 10.56° C | 95% | 1006.9 hPa | 0 mm | 0.89 m/s, 183° | 0 W/m² | - |
| 1778108553 | 10.56° C | 95% | 1006.8 hPa | 0 mm | 0.89 m/s, 183° | 0 W/m² | - |
| 1778108492 | 10.56° C | 95% | 1006.7 hPa | 0 mm | 0.89 m/s, 183° | 0 W/m² | - |
| 1778108431 | 10.56° C | 95% | 1006.9 hPa | 0 mm | 0.89 m/s, 182° | 0 W/m² | - |
| 1778108370 | 10.56° C | 95% | 1006.9 hPa | 0 mm | 0.89 m/s, 201° | 0 W/m² | - |
| 1778108309 | 10.56° C | 95% | 1006.7 hPa | 0 mm | 0.89 m/s, 182° | 0 W/m² | - |
| 1778108248 | 10.56° C | 95% | 1006.9 hPa | 0 mm | 0.89 m/s, 178° | 0 W/m² | - |
| 1778108187 | 10.56° C | 95% | 1006.9 hPa | 0 mm | 0.89 m/s, 184° | 0 W/m² | - |
| 1778108126 | 10.56° C | 95% | 1006.6 hPa | 0 mm | 0.89 m/s, 202° | 0 W/m² | - |
| 1778108065 | 10.56° C | 95% | 1006.8 hPa | 0 mm | 0.45 m/s, 185° | 0 W/m² | - |
| 1778108004 | 10.56° C | 95% | 1006.9 hPa | 0 mm | 0.89 m/s, 184° | 0 W/m² | - |
| 1778107943 | 10.56° C | 95% | 1007 hPa | 0 mm | 1.79 m/s, 192° | 0 W/m² | - |
* Rain latest hour (hover to see other rain measurements)
** Current wind speed in m/s (hover to see current wind gust speed)